RPP1 RPVM-RPLL

Flight info

Callsign RPP1
Flight time N/A
Altitude 43000
Route PARAO4P PARAO DCT ROX DCT LAIYA LAIYA3R
Aircraft C25C/M-SDE2E3FGHRWXY/LB1

Departure

Time 2026-05-06 16:28
Airport Mactan Cebu International Airport (RPVM)

Arrival

Time N/A
Airport Ninoy Aquino International Airport (RPLL)
Time Latitude Longitude Altitude Speed Heading
2026-05-06 16:12 10.30959 123.97511 32 ft 0 kts 44°
2026-05-06 16:23 10.30959 123.97512 32 ft 2 kts 44°
2026-05-06 16:23 10.30970 123.97549 32 ft 6 kts 143°
2026-05-06 16:23 10.30921 123.97585 32 ft 9 kts 135°
2026-05-06 16:23 10.30889 123.97595 32 ft 5 kts 209°
2026-05-06 16:24 10.30850 123.97560 32 ft 11 kts 224°
2026-05-06 16:24 10.30791 123.97504 32 ft 10 kts 202°
2026-05-06 16:24 10.30742 123.97520 33 ft 4 kts 201°
2026-05-06 16:24 10.30710 123.97493 33 ft 9 kts 225°
2026-05-06 16:25 10.30652 123.97435 33 ft 14 kts 223°
2026-05-06 16:25 10.30567 123.97349 33 ft 20 kts 227°
2026-05-06 16:25 10.30457 123.97239 33 ft 24 kts 226°
2026-05-06 16:25 10.30325 123.97107 32 ft 29 kts 224°
2026-05-06 16:26 10.30170 123.96956 32 ft 33 kts 223°
2026-05-06 16:26 10.30040 123.96819 32 ft 17 kts 224°
2026-05-06 16:26 10.29943 123.96722 32 ft 22 kts 225°
2026-05-06 16:26 10.29828 123.96762 31 ft 22 kts 133°
2026-05-06 16:27 10.29719 123.96876 28 ft 17 kts 118°
2026-05-06 16:27 10.29738 123.96923 27 ft 1 kts 41°
2026-05-06 16:27 10.29958 123.97144 27 ft 99 kts 44°
2026-05-06 16:27 10.30646 123.97865 240 ft 184 kts 47°
2026-05-06 16:28 10.31699 123.98982 742 ft 253 kts 46°
2026-05-06 16:28 10.33090 124.00398 933 ft 316 kts 44°
2026-05-06 16:28 10.34782 124.02030 1272 ft 338 kts 44°
2026-05-06 16:28 10.36438 124.03711 2485 ft 339 kts 45°
2026-05-06 16:29 10.38347 124.05132 3355 ft 346 kts 25°
2026-05-06 16:29 10.40638 124.05789 4280 ft 352 kts
2026-05-06 16:29 10.43095 124.05528 5134 ft 361 kts 347°
2026-05-06 16:29 10.45266 124.04338 6533 ft 346 kts 324°
2026-05-06 16:30 10.46851 124.02620 8309 ft 321 kts 309°
2026-05-06 16:30 10.47733 124.01473 9532 ft 302 kts 311°
2026-05-06 16:30 10.49423 123.99297 11277 ft 295 kts 309°
2026-05-06 16:30 10.50684 123.97622 12177 ft 301 kts 309°
2026-05-06 16:31 10.51967 123.95923 13113 ft 304 kts 310°
2026-05-06 16:31 10.53274 123.94215 13972 ft 308 kts 310°
2026-05-06 16:31 10.54593 123.92482 14729 ft 312 kts 310°
2026-05-06 16:31 10.55931 123.90725 15485 ft 316 kts 309°
2026-05-06 16:32 10.57285 123.88944 16236 ft 320 kts 310°
2026-05-06 16:32 10.58658 123.87137 16983 ft 325 kts 309°
2026-05-06 16:32 10.59957 123.85277 17697 ft 329 kts 306°
2026-05-06 16:32 10.61331 123.83398 18379 ft 333 kts 309°
2026-05-06 16:33 10.62747 123.81522 18989 ft 336 kts 308°
2026-05-06 16:33 10.64136 123.79592 19604 ft 340 kts 307°
2026-05-06 16:33 10.65526 123.77632 20113 ft 348 kts 307°
2026-05-06 16:34 10.68566 123.73417 20221 ft 386 kts 307°
2026-05-06 16:34 10.70180 123.71178 20373 ft 400 kts 307°
2026-05-06 16:34 10.71823 123.68885 20801 ft 402 kts 307°
2026-05-06 16:34 10.73484 123.66579 21271 ft 403 kts 307°
2026-05-06 16:35 10.75138 123.64277 21812 ft 403 kts 307°
2026-05-06 16:35 10.76797 123.61976 22361 ft 402 kts 307°
2026-05-06 16:35 10.78424 123.59708 22903 ft 402 kts 307°
2026-05-06 16:35 10.80077 123.57410 23465 ft 401 kts 307°
2026-05-06 16:36 10.81725 123.55116 23953 ft 400 kts 307°
2026-05-06 16:36 10.83361 123.52839 24493 ft 398 kts 307°
2026-05-06 16:36 10.85008 123.50548 24677 ft 408 kts 307°
2026-05-06 16:36 10.86709 123.48178 24680 ft 421 kts 307°
2026-05-06 16:37 10.88461 123.45741 24688 ft 431 kts 307°
2026-05-06 16:37 10.90245 123.43252 24695 ft 440 kts 307°
2026-05-06 16:37 10.92095 123.40736 24701 ft 446 kts 310°
2026-05-06 16:37 10.94301 123.38490 24703 ft 451 kts 317°
2026-05-06 16:38 10.96605 123.36315 24845 ft 451 kts 318°
2026-05-06 16:38 10.98903 123.34146 25050 ft 451 kts 317°
2026-05-06 16:38 10.99551 123.33522 25106 ft 450 kts 317°
2026-05-06 16:38 11.00039 123.33049 25144 ft 450 kts 317°
2026-05-06 16:39 11.02303 123.30849 25342 ft 450 kts 317°